Location: Little Buffalo State Park
(40.4572°N, 77.1689°W)
Time: 12:26:06
(UTC-04:00)

OTV 5 (USA 277) - Visible Passes

Search period start: 22 October 2019 00:00
Search period end: 01 November 2019 00:00
Orbit: 310 x 324 km, 54.5° (Epoch: 17 October)

Date Brightness Start Highest point End Pass type
(mag) Time Alt. Az. Time Alt. Az. Time Alt. Az.
22 Oct ? 06:07:29 16° SSW 06:07:29 16° SSW 06:08:28 10° S visible
26 Oct ? 20:12:49 10° SW 20:12:58 11° SW 20:12:58 11° SW visible
27 Oct ? 18:54:53 10° SSE 18:56:03 12° SE 18:56:48 11° ESE visible
27 Oct ? 20:27:28 10° WSW 20:27:43 12° WSW 20:27:43 12° WSW visible
28 Oct ? 19:07:53 10° SSW 19:10:23 33° SE 19:11:24 24° E visible
29 Oct ? 19:22:09 10° SW 19:24:51 72° NW 19:25:53 34° NE visible
30 Oct ? 19:37:07 10° W 19:39:30 26° NW 19:40:14 23° N visible
31 Oct ? 19:52:47 10° WNW 19:54:17 14° NNW 19:54:30 14° NNW visible
